RH
18 17 16 15 15 14 14 15 15 16 15 14 13 13 12 10 10 10 10 10 9 9 10 9 9 10 10 10 10 10 11 10 10 14 16 14 13 14 12 11 11 11 10 11 13 14 13 13 13 13 12 12 12 12 14 14 14 14 13 13 15 15 15 18 18 18 15 18 22 17 13 13 13 14 15 17 13 15 20 24 35 40 44 49 46 47 56 62
18 17 15 15 16 16 16 15 15 15 15 14 13 13 12 10 10 10 10 10 9 9 9 9 10 9 9 10 10 11 11 10 11 15 17 14 12 11 10 10 11 11 10 12 14 13 13 14 13 12 12 13 13 13 15 14 13 13 13 13 14 15 18 19 17 15 13 15 19 16 14 13 13 16 18 20 16 15 18 25 35 40 45 52 51 51 56 62
18 19 19 19 19 18 16 15 14 15 15 14 13 13 12 10 10 9 10 10 9 9 8 9 9 8 10 9 10 10 10 12 15 16 16 14 12 11 10 10 11 11 11 14 13 13 15 16 15 13 12 14 13 13 14 14 13 13 13 14 15 16 18 18 15 14 14 14 15 15 13 14 15 17 20 20 19 19 18 25 36 37 38 47 56 61 63 66
23 23 23 21 19 17 16 15 14 15 15 15 13 12 11 10 9 9 9 8 9 9 8 8 8 8 9 9 9 9 13 19 21 17 14 13 12 12 11 10 11 11 12 14 13 14 14 15 14 13 13 13 13 13 13 13 14 13 11 13 15 16 15 15 14 13 13 13 14 15 13 15 15 15 18 18 22 25 24 28 36 38 37 44 56 67 70 70
25 25 24 21 19 17 16 15 16 17 17 15 13 12 11 10 9 9 8 8 8 8 8 8 8 8 7 8 8 11 22 27 24 20 15 13 11 11 11 10 11 11 13 14 13 13 12 13 13 12 14 13 13 13 12 13 13 13 12 13 13 15 15 14 14 12 13 13 14 14 14 16 15 14 17 19 25 32 32 33 37 40 41 45 55 66 68 67
26 25 24 22 19 17 17 18 20 20 19 17 13 11 10 10 9 10 9 8 7 7 7 7 7 7 6 9 9 14 28 28 23 23 18 14 13 10 10 9 10 12 14 14 12 12 11 13 12 12 13 12 13 13 13 13 12 12 12 13 12 12 13 13 13 12 12 13 14 14 14 15 14 15 17 19 28 36 40 41 44 44 42 45 52 60 64 64
26 25 23 21 20 19 20 22 22 21 20 19 16 12 10 10 10 10 10 9 8 7 6 7 7 7 7 10 12 18 29 26 19 19 15 14 13 10 10 9 10 13 14 13 12 13 12 13 12 12 12 11 13 13 13 13 13 13 12 13 13 12 11 12 12 12 12 13 14 13 14 13 14 19 19 23 32 36 39 43 49 49 48 48 47 57 65 62
27 25 22 21 21 21 23 23 22 20 19 20 20 16 10 10 10 10 10 9 9 8 7 7 7 7 10 12 16 24 28 23 16 13 13 13 11 9 9 10 12 13 13 14 14 14 13 12 11 11 10 11 12 13 14 12 12 12 11 13 13 12 11 11 11 12 12 12 14 13 14 14 15 19 21 29 35 34 35 41 49 46 47 49 48 60 64 59
26 24 22 21 21 23 24 22 21 19 19 19 21 20 14 10 10 11 11 10 9 9 8 7 7 9 11 13 21 28 25 19 13 11 12 12 10 9 9 11 13 12 13 15 15 13 12 11 11 10 11 13 12 12 12 10 12 12 11 11 12 12 11 12 12 12 12 12 14 13 14 16 16 17 23 35 37 34 35 40 48 43 42 50 56 63 57 55
24 22 22 21 21 23 23 21 20 19 19 18 20 23 19 13 11 12 12 11 10 10 9 8 8 10 13 17 27 29 20 15 13 12 12 11 10 10 11 12 11 12 15 16 13 12 11 11 12 11 11 13 11 10 10 10 14 15 13 12 11 12 12 12 13 12 12 12 13 14 16 18 18 18 25 37 36 35 39 40 42 39 43 54 58 60 51 50
20 20 20 20 22 23 22 21 20 18 18 19 19 22 23 16 11 12 12 12 11 10 10 8 8 11 14 20 29 26 17 13 13 13 12 12 11 12 12 12 10 14 17 14 12 12 13 14 13 12 12 13 10 10 11 11 13 14 13 12 12 12 12 13 13 12 11 13 14 13 17 19 19 20 25 35 35 35 41 41 38 37 45 53 54 55 50 46
16 16 17 19 21 22 22 21 20 19 18 20 20 21 22 17 12 12 12 13 12 11 10 8 10 12 15 22 24 19 15 12 12 13 12 12 12 11 11 11 11 15 17 14 13 13 13 14 12 13 15 14 12 13 12 11 11 12 11 12 13 13 13 13 12 12 12 14 16 14 17 17 17 23 26 30 33 36 39 41 43 43 45 51 51 49 43 40
13 13 14 17 19 19 19 19 18 19 18 20 21 20 21 18 15 14 12 12 12 13 11 10 11 12 20 26 19 14 14 12 12 12 11 11 11 11 10 10 11 13 15 15 14 13 12 11 11 14 15 14 16 17 14 12 10 11 11 11 14 14 14 14 13 13 12 15 17 14 17 19 21 27 26 25 31 36 37 39 43 44 46 49 48 45 39 36
11 12 13 15 17 17 16 16 16 16 17 20 22 21 21 19 18 16 14 13 13 13 11 12 13 16 26 27 16 13 15 13 13 12 11 11 10 10 9 10 10 10 11 12 13 12 11 11 11 13 13 13 18 16 12 13 11 12 13 11 12 15 17 16 14 13 13 15 17 13 17 24 28 31 26 24 28 34 39 39 39 41 46 46 41 44 44 39
12 12 12 13 14 15 15 14 13 14 15 19 21 21 21 20 20 18 17 16 15 14 12 13 15 20 27 24 15 15 14 14 14 12 12 11 10 10 9 10 10 10 11 10 11 11 11 12 12 15 16 14 13 13 14 15 13 12 15 15 11 17 25 22 16 14 15 16 16 13 17 23 28 31 29 26 26 31 40 42 41 42 45 44 38 43 48 44
12 12 12 13 13 13 13 12 13 13 14 18 20 20 21 22 21 19 19 18 17 15 13 18 21 24 29 26 19 15 14 16 15 12 13 12 14 15 11 11 10 10 11 10 12 11 11 12 13 16 17 14 12 14 17 17 16 12 15 21 19 18 25 27 22 18 17 18 16 13 17 23 27 30 31 29 27 29 37 42 42 43 45 44 39 42 49 48
12 13 13 13 13 12 12 12 12 12 14 18 18 18 18 21 21 20 20 19 18 16 15 22 25 26 28 25 20 17 18 19 16 13 13 12 16 17 13 13 13 12 12 12 13 13 14 13 14 16 14 15 17 17 18 20 24 18 15 25 27 20 22 27 27 21 18 16 16 16 17 24 30 30 31 30 27 27 33 40 43 43 44 44 40 43 50 51
13 13 13 13 12 12 12 12 12 13 16 18 18 18 17 19 20 21 22 20 18 16 17 21 24 28 30 23 21 24 23 19 15 15 15 13 15 15 15 16 16 15 14 14 14 15 16 14 16 20 19 18 17 17 22 28 32 29 24 26 28 22 20 26 31 28 21 16 19 24 20 22 30 31 33 31 26 25 29 36 42 41 41 42 40 44 51 54
13 13 13 13 12 12 12 12 13 15 17 18 18 17 18 21 21 20 22 23 21 20 24 23 21 29 32 25 24 25 22 18 16 16 17 15 14 16 18 18 17 17 17 18 18 16 18 17 17 22 23 21 18 19 26 29 29 29 29 29 29 27 21 24 32 33 28 19 20 28 23 20 26 31 34 31 24 24 26 31 37 38 37 37 36 43 54 58
13 14 13 12 11 11 12 12 14 17 18 19 17 18 25 29 31 32 28 25 24 24 28 26 21 27 29 25 24 23 20 18 17 17 18 16 15 17 18 18 18 17 18 23 25 19 18 21 22 24 26 26 24 22 23 24 23 22 24 25 25 27 23 24 32 32 28 21 18 27 28 23 27 31 35 33 25 22 23 26 31 33 34 35 33 39 52 54
13 14 15 14 11 10 11 12 15 17 17 18 17 22 30 28 31 37 29 22 23 22 25 25 21 26 30 26 24 23 21 20 19 20 19 17 17 18 18 18 18 18 19 24 27 22 18 19 24 27 28 27 25 21 18 19 20 19 19 19 20 24 23 26 33 30 24 20 18 28 33 28 26 29 31 29 26 22 21 23 26 28 31 34 34 37 47 51
13 13 14 14 12 12 12 14 15 16 17 18 19 24 30 25 26 30 24 23 26 21 20 22 19 24 28 25 24 23 24 23 22 22 20 18 18 20 21 18 17 21 22 21 22 21 18 19 24 26 24 22 21 18 18 19 20 19 18 18 20 25 25 27 31 28 22 19 19 28 33 29 26 28 28 27 26 23 21 22 23 25 28 31 33 37 43 49
12 12 13 13 14 14 14 15 16 17 18 19 23 27 29 28 29 28 25 27 31 24 19 19 18 22 25 24 23 21 25 28 25 24 21 19 19 21 23 20 19 23 24 22 20 22 26 28 28 26 20 17 19 19 20 20 19 19 20 18 20 27 28 27 31 31 25 20 19 25 29 29 26 25 27 28 27 23 21 22 23 25 28 29 30 33 37 43
12 12 13 13 14 16 16 17 17 18 19 20 24 26 27 30 30 31 29 29 33 26 21 20 19 24 28 26 23 22 27 31 28 27 22 19 23 21 22 22 20 20 21 22 20 21 29 32 29 25 20 18 21 22 21 21 21 22 22 20 22 29 31 30 34 37 33 28 23 21 24 24 23 22 24 28 28 24 21 20 21 25 27 29 30 32 33 37
14 12 13 14 15 17 17 18 19 20 21 21 25 26 28 30 31 33 30 30 36 29 21 22 21 25 29 25 23 25 30 30 30 32 24 21 25 24 23 23 21 22 22 20 20 22 27 27 23 23 21 18 20 24 23 21 22 25 25 24 23 26 31 32 32 33 32 31 28 25 24 23 21 24 28 33 34 31 26 21 21 24 25 27 29 31 33 35
15 13 14 15 17 18 19 22 23 23 23 23 25 28 30 30 31 33 31 37 48 39 27 24 23 27 28 25 25 26 29 31 32 31 24 23 25 24 26 23 20 25 25 21 20 23 26 25 22 22 22 21 21 24 27 25 23 25 27 28 26 24 27 31 30 29 26 25 29 30 29 27 26 29 32 35 36 35 30 24 22 22 22 23 24 25 28 30
18 17 17 18 19 19 22 27 27 24 27 28 26 27 29 29 29 33 37 43 48 42 35 31 28 30 31 30 29 27 30 33 33 29 24 24 25 23 25 25 23 24 23 21 22 23 25 25 23 21 21 23 24 23 26 28 24 26 31 32 31 27 26 29 28 27 24 22 28 29 28 29 28 30 33 36 37 36 33 29 27 25 24 24 23 23 24 25
22 21 20 20 21 21 22 26 26 24 28 27 24 26 28 27 26 33 44 49 43 37 37 34 28 29 30 29 29 31 35 34 32 32 28 25 25 24 25 27 27 27 23 21 26 28 28 29 27 24 24 25 28 27 27 29 27 30 35 33 32 31 30 32 31 29 27 26 29 29 29 30 27 27 29 33 34 35 35 35 33 30 28 27 27 26 25 25
24 23 23 21 20 21 21 20 22 24 25 23 21 23 22 22 26 34 47 52 44 35 35 32 27 26 28 27 27 32 35 33 30 31 30 27 27 27 27 28 27 29 26 23 28 32 31 31 28 26 27 27 30 33 31 31 32 34 36 32 31 32 32 34 33 30 31 31 31 30 31 31 30 29 30 33 35 35 37 40 39 37 34 33 32 29 27 26
24 25 25 23 20 22 21 20 20 21 23 22 20 19 18 21 31 44 52 48 40 35 34 33 31 29 29 30 31 31 32 33 31 28 29 31 30 28 28 29 28 29 29 27 28 30 29 28 24 22 24 24 27 31 29 28 31 34 34 31 33 34 33 34 33 30 31 31 30 30 30 30 32 30 29 37 41 38 37 39 42 40 39 39 37 32 29 29
25 25 25 23 23 24 26 25 24 23 24 22 17 16 18 25 37 52 56 45 36 34 33 31 32 31 30 31 33 33 32 33 31 29 30 32 32 31 30 29 28 29 30 29 29 29 28 25 21 21 21 20 22 23 24 23 25 31 31 30 33 36 37 38 39 38 36 32 29 29 29 30 30 26 27 36 42 41 39 40 42 42 40 39 35 32 31 30
26 25 26 26 25 26 28 30 28 26 24 20 16 17 25 34 40 46 50 45 39 36 33 31 31 30 29 30 33 35 35 35 34 33 33 35 35 34 32 31 32 34 34 34 34 35 35 31 29 28 21 19 19 19 22 23 24 29 30 31 35 39 43 45 44 44 43 38 37 35 35 35 31 26 29 36 37 38 38 38 39 38 36 34 32 32 31 29
26 26 27 29 29 30 30 30 27 23 21 20 18 21 32 42 42 40 43 44 39 35 35 34 32 29 28 30 34 36 35 36 36 35 35 35 37 36 35 32 31 35 37 39 42 43 40 37 36 33 23 17 17 18 26 30 29 29 29 31 35 39 45 45 41 41 41 39 40 40 39 37 31 27 32 37 34 33 31 30 30 30 31 30 29 30 31 29
25 26 29 30 32 33 31 28 25 20 19 20 21 25 34 38 34 34 40 41 38 36 35 33 31 30 29 30 34 36 36 36 35 34 32 30 30 30 32 30 24 24 28 31 36 38 36 35 36 35 29 23 18 18 26 31 32 32 31 32 35 38 42 42 39 40 40 38 40 42 40 35 33 34 36 37 34 31 29 27 26 26 28 27 27 29 31 30
22 24 26 28 31 31 30 28 24 19 17 18 24 31 36 32 24 24 30 34 38 36 31 27 27 29 31 31 31 32 37 40 35 30 27 26 27 28 30 30 25 20 20 24 28 27 26 28 32 33 30 25 19 18 20 21 26 30 28 29 33 34 36 36 35 36 39 39 39 40 37 33 35 38 37 35 32 29 28 27 27 27 28 28 30 32 32 30
22 25 24 25 30 29 27 26 23 19 16 19 28 33 32 28 23 23 27 31 34 34 30 27 25 27 32 35 33 30 30 34 32 26 23 24 27 30 30 30 26 20 18 21 27 28 25 26 29 27 22 19 17 18 18 18 22 26 26 28 30 30 31 32 32 33 36 37 34 32 30 29 33 36 35 34 32 29 26 26 28 29 30 30 32 34 33 33
20 26 25 26 29 27 24 24 23 21 18 21 28 30 28 25 22 23 28 29 28 28 29 29 28 27 30 35 38 34 28 27 25 21 21 26 26 26 26 25 21 17 17 18 22 27 28 27 27 25 23 22 18 15 16 17 18 20 25 30 29 29 30 30 31 34 35 33 30 28 28 28 32 38 40 35 33 32 29 28 30 30 30 32 33 35 36 37
14 21 23 24 25 23 22 24 23 20 21 24 24 24 23 23 24 24 23 21 21 22 25 28 31 30 31 34 39 39 33 28 25 22 22 27 30 29 27 25 21 18 19 17 17 23 27 25 24 24 25 25 20 16 15 16 16 16 19 23 25 28 31 31 33 35 34 33 30 29 29 30 33 41 44 41 39 39 36 33 32 32 32 31 32 34 37 39
11 16 22 23 20 18 20 23 21 21 26 27 24 22 21 20 24 23 18 16 17 19 22 24 26 31 33 35 37 38 35 30 26 26 26 28 34 35 30 28 26 21 19 19 19 24 28 26 23 23 24 24 22 20 17 17 19 19 18 19 20 23 25 27 30 31 33 34 34 33 33 36 40 43 43 43 44 43 40 37 36 36 35 32 31 33 37 41
13 15 22 26 22 19 20 20 21 24 29 27 23 26 29 29 28 22 15 15 18 19 22 24 26 30 33 33 33 34 35 32 29 28 28 29 34 36 31 28 26 23 20 19 20 24 25 26 26 23 22 24 24 23 21 21 25 27 26 26 24 22 24 26 28 28 29 31 33 33 31 33 40 42 40 43 47 45 43 41 39 38 36 34 34 34 36 41
14 13 21 26 23 20 20 21 24 26 27 27 26 28 35 37 34 26 17 15 16 18 21 24 27 31 31 31 32 32 32 31 29 27 26 27 28 31 30 25 22 22 20 18 20 23 24 26 28 25 22 22 24 27 26 25 26 28 29 30 29 30 32 33 32 31 31 29 32 33 31 34 41 41 39 41 45 45 45 43 43 41 37 37 37 36 36 40
12 14 21 25 21 18 19 23 27 26 24 28 32 35 37 34 29 25 20 16 15 18 20 19 22 27 29 29 30 29 30 29 27 24 23 24 26 28 28 23 18 18 18 18 23 27 27 27 26 24 22 19 20 24 25 23 23 23 24 26 27 29 32 34 33 35 37 33 33 33 32 39 45 43 41 41 43 47 46 43 43 40 37 37 37 36 37 38
18 19 24 23 19 17 20 24 26 25 25 28 33 38 37 30 25 24 21 19 18 20 21 19 19 23 25 27 28 27 29 29 26 24 23 24 27 27 25 20 16 16 16 17 23 27 26 24 21 19 18 16 15 17 18 19 19 20 20 21 23 23 24 27 28 32 37 35 34 34 34 40 45 42 42 43 44 47 45 43 44 41 38 37 36 35 37 38
19 18 23 21 15 14 20 25 24 24 28 31 33 33 29 25 24 23 24 24 24 26 26 24 25 25 24 26 25 23 27 28 26 25 24 25 29 27 21 18 15 16 19 23 28 31 29 28 26 24 23 22 20 19 20 23 24 24 23 22 22 21 24 29 31 35 37 32 31 33 32 37 45 43 42 45 46 46 44 45 47 44 40 41 39 37 38 39
20 19 22 20 13 13 18 22 24 27 33 39 39 34 29 25 22 22 23 26 26 25 26 27 28 26 23 23 23 21 25 27 26 26 25 25 28 25 19 18 15 17 24 25 26 26 25 26 27 29 30 28 25 22 25 30 32 32 31 27 25 27 32 37 37 39 38 32 31 31 29 35 44 42 42 44 44 44 44 46 49 47 44 45 45 43 40 39
28 28 29 26 20 17 18 21 23 25 30 36 39 34 31 30 28 24 21 23 25 22 22 26 27 23 21 24 24 21 23 25 24 25 27 28 29 26 22 19 17 21 25 22 20 22 24 23 24 27 30 29 27 26 26 29 31 31 32 30 29 31 35 40 39 37 34 31 30 31 31 35 42 43 46 49 50 51 50 48 51 54 51 48 46 44 41 39
34 36 34 32 28 23 23 22 21 23 24 27 32 33 30 30 32 30 23 22 25 24 22 23 23 22 22 24 26 24 25 27 27 26 26 27 29 31 28 23 21 23 22 21 22 24 26 26 25 27 27 27 28 27 24 26 28 27 28 29 31 31 31 36 40 37 35 33 29 28 32 37 39 43 49 53 55 57 55 53 54 59 59 53 47 44 43 42
44 43 35 32 34 33 32 31 26 25 27 26 28 32 32 29 31 35 32 27 25 23 23 25 24 23 23 26 30 31 30 32 33 32 31 28 27 32 33 28 25 22 21 24 26 26 28 28 28 30 31 32 34 31 27 28 29 28 27 29 32 33 31 34 37 36 38 41 35 28 31 35 37 43 50 53 54 55 56 54 55 59 61 55 49 47 46 46
46 47 40 35 39 40 36 33 28 26 28 28 28 32 33 30 30 34 35 32 28 25 24 25 25 24 25 26 28 31 33 37 38 36 38 37 34 37 40 38 35 32 27 27 28 30 32 30 29 31 32 33 33 30 28 30 31 31 31 30 31 33 33 35 36 36 40 44 40 38 38 34 32 39 46 48 51 53 52 50 52 58 60 56 51 49 50 52
44 48 45 45 49 45 35 30 27 27 31 32 31 32 33 31 31 33 33 30 31 33 29 26 27 28 26 23 25 31 35 38 40 40 43 46 44 42 44 43 43 44 40 36 38 40 40 37 34 35 37 35 32 32 32 33 34 36 35 33 32 32 33 34 36 37 40 42 42 45 46 38 34 38 39 39 43 45 44 44 48 54 56 55 53 52 53 56
40 42 44 51 56 50 42 40 34 28 32 37 38 39 37 34 33 34 33 29 30 34 33 31 34 32 27 26 31 37 35 32 35 37 37 40 40 38 40 41 41 44 44 44 48 50 48 44 40 41 44 40 37 38 38 36 36 36 36 35 35 34 35 36 38 40 42 45 48 48 44 39 38 39 38 39 41 40 40 41 45 48 49 51 54 55 56 58
32 36 38 45 52 49 47 50 46 40 41 42 40 39 37 36 34 35 36 32 30 32 32 32 35 34 33 38 42 40 34 30 30 30 28 30 30 29 31 33 33 35 37 40 46 50 51 51 49 49 50 44 41 41 41 41 42 39 36 37 38 40 41 39 40 41 43 48 51 48 43 40 41 44 45 45 44 44 48 51 53 53 51 53 56 57 58 60